Weather Roundup
Issued by NWS

Home | Current Version | Previous Version | Text Only | Print | Product List | Glossary On
Versions: 1 2 3 4 5 6 7 8 9 10 11 12 13 14 15 16 17 18 19 20 21 22 23 24 25 26 27 28 29 30 31 32 33 34 35 36 37 38 39 40 41 42 43 44 45 46 47 48 49 50
000
NZUS93 KARX 290010
HRRWXR

CURRENT HOURLY OBSERVATIONS ACROSS
MUCH OF THE UPPER MISSISSIPPI VALLEY
NATIONAL WEATHER SERVICE LA CROSSE WI
700 PM CDT THU APR 28 2016


...SOUTHEAST MINNESOTA...


CITY           SKY/WX    TMP DP  RH WIND       PRES   REMARKS
ROCHESTER      CLOUDY    40  39  97 NE7       30.02R
ROCHESTER/MAYO CLOUDY    40  40 100 N5        30.03R
WINONA         CLOUDY    41  39  93 E7        30.04R FOG
AUSTIN         CLOUDY    39  36  87 NE7       30.01R WCI  34
ALBERT LEA     CLOUDY    39  39 100 NE8       30.01R WCI  34
DODGE CENTER   CLOUDY    39  37  93 E9        30.02S WCI  33
PRESTON        CLOUDY    39  36  87 NE3       30.01S
OWATONNA       DRIZZLE   39  37  93 NE7       30.03S WCI  34
FARIBAULT      CLOUDY    39  36  87 NE10      30.04S WCI  32
$$

...ELSEWHERE IN MINNESOTA...


CITY           SKY/WX    TMP DP  RH WIND       PRES   REMARKS
MINNEAPOLIS    LGT RAIN  40  36  86 N5        30.08R
INTNL FALLS    SUNNY     53  26  35 NE10      30.12R
DULUTH         PTSUNNY   39  24  55 E13       30.11R WCI  31
RED WING       LGT RAIN  41  37  87 E5        30.05R
REDWOOD FALLS  CLOUDY    42  36  79 E9G18     30.06R
MANKATO        CLOUDY    39  36  87 NE8       30.05R WCI  34
WORTHINGTON    CLOUDY    39  36  89 N8        30.04R WCI  33
FAIRMONT       CLOUDY    41  30  65 NE10      30.02S
$$

...SOUTHWEST WISCONSIN...


CITY           SKY/WX    TMP DP  RH WIND       PRES   REMARKS
LA CROSSE      LGT RAIN  42  39  89 E6        30.03R
PRAIRIE DU CHI CLOUDY    42  39  86 E5        30.00R FOG
BOSCOBEL       LGT RAIN  43  39  86 E6        30.01R
LONE ROCK      CLOUDY    41  39  93 E7        30.02R
PLATTEVILLE    CLOUDY    43  41  95 NE9       29.98R
FORT MC COY    CLOUDY    40  39  98 NE7       30.05R FOG     WCI  35
CAMP DOUGLAS   CLOUDY    40  40 100 E7        30.03R
MAUSTON-NEW LI CLOUDY    40  38  91 E5        30.03R FOG
VIROQUA        CLOUDY    39  39  98 E6        30.00S WCI  35
WIS DELLS      CLOUDY    39  38  94 E6        30.02R FOG     WCI  35
$$

...ELSEWHERE IN WISCONSIN...


CITY           SKY/WX    TMP DP  RH WIND       PRES   REMARKS
MILWAUKEE      CLOUDY    40  37  89 NE13      30.00S WCI  32
MADISON        CLOUDY    40  36  86 E8        30.00S WCI  34
GREEN BAY      CLOUDY    44  33  65 NE7       30.05R
EAU CLAIRE     LGT RAIN  41  37  86 SE7       30.07R FOG
BLACK RVR FLS  LGT RAIN  39  39 100 NE7       30.05R WCI  34
MEDFORD        CLOUDY    40  35  82 CALM      30.03S
WAUSAU         LGT RAIN  42  36  79 E10       30.04R
WIS RAPIDS     CLOUDY    41  37  86 N7        30.04S
MARSHFIELD     LGT RAIN  41  35  79 NE6       30.03R
RICE LAKE      CLOUDY    45  33  65 S8        30.06S
$$

...NORTHEAST IOWA...


CITY           SKY/WX    TMP DP  RH WIND       PRES   REMARKS
WATERLOO       CLOUDY    47  43  86 NE10      29.97R
DUBUQUE        CLOUDY    44  43  96 NE9       29.97R FOG
DECORAH        CLOUDY    41  41 100 NE6       29.98S FOG
MASON CITY     CLOUDY    44  42  93 NE10      30.00R
CHARLES CITY   CLOUDY    43  43 100 NE8       29.99S FOG
OELWEIN        CLOUDY    45  45 100 NE9       29.98R
$$

...ELSEWHERE IN IOWA...


CITY           SKY/WX    TMP DP  RH WIND       PRES   REMARKS
DES MOINES     DRIZZLE   51  47  86 NW13      29.98R FOG
IOWA CITY      CLOUDY    54  47  77 NW6       29.95R
FORT DODGE     CLOUDY    46  39  76 N5        30.00R
MARSHALLTOWN   CLOUDY    49  47  93 N12       29.96R
CEDAR RAPIDS   CLOUDY    49  48  97 N12       29.94R
$$

...NORTHERN ILLINOIS...


CITY           SKY/WX    TMP DP  RH WIND       PRES   REMARKS
CHICAGO-OHARE  CLOUDY    44  39  82 NE7       29.96R
CHICAGO-MIDWAY CLOUDY    48  40  73 NE9       29.96R
MOLINE         CLOUDY    54  49  83 CALM      29.94R
ROCKFORD       CLOUDY    45  41  86 NE9       29.99S
PEORIA         CLOUDY    58  46  64 W7        29.95R
$$

NOTE: "FAIR" INDICATES FEW OR NO CLOUDS BELOW 12,000 FEET WITH NO
SIGNIFICANT WEATHER AND/OR OBSTRUCTIONS TO VISIBILITY. WIND
SPEEDS ARE IN MILES-PER-HOUR.




USA.gov is the U.S. government's official web portal to all federal, state and local government web resources and services.